Location: Newark
(29.9790°N, 31.1340°E)
Time: 01:57:08
(UTC+00:00)

A-11 Canister half - Pass Details

Date: 27 January 2020
Orbit: 1524 x 1684 km, 47.3° (Epoch: 21 February)

Event Time Altitude Azimuth Distance (km) Brightness Sun altitude
Rises 17:40:16 0° 293° (WNW) 4,692 12.5 -28.7°
Reaches altitude 10° 17:44:00 10° 305° (NW) 3,726 11.6 -29.5°
Maximum altitude 17:51:41 27° 0° (N) 2,670 10.1 -31.1°
Enters shadow 17:53:34 25° 18° (NNE) 2,757 10.1 -31.5°
